TimeCDT,TemperatureF,Dew PointF,Humidity,Sea Level PressureIn,VisibilityMPH,Wind Direction,Wind SpeedMPH,Gust SpeedMPH,PrecipitationIn,Events,Conditions,WindDirDegrees,DateUTC
12:56 AM,44.6,30.2,57,29.76,10.0,West,16.1,21.9,N/A,,Clear,260,2011-10-17 05:56:00
1:56 AM,45.0,30.9,58,29.78,10.0,West,15.0,-,N/A,,Clear,270,2011-10-17 06:56:00
2:56 AM,42.8,30.2,61,29.77,10.0,West,13.8,-,N/A,,Clear,260,2011-10-17 07:56:00
3:56 AM,41.0,30.9,67,29.78,10.0,West,11.5,-,N/A,,Clear,260,2011-10-17 08:56:00
4:56 AM,41.0,30.9,67,29.79,10.0,West,11.5,-,N/A,,Clear,260,2011-10-17 09:56:00
5:56 AM,39.9,30.9,70,29.79,10.0,West,10.4,-,N/A,,Clear,260,2011-10-17 10:56:00
6:56 AM,39.0,30.0,70,29.80,10.0,WSW,10.4,-,N/A,,Clear,250,2011-10-17 11:56:00
7:56 AM,39.9,30.9,70,29.80,10.0,West,13.8,-,N/A,,Clear,260,2011-10-17 12:56:00
8:56 AM,43.0,32.0,65,29.80,10.0,West,10.4,-,N/A,,Clear,260,2011-10-17 13:56:00
9:56 AM,48.0,32.0,54,29.80,10.0,West,12.7,24.2,N/A,,Clear,270,2011-10-17 14:56:00
10:56 AM,51.1,30.0,44,29.78,10.0,West,16.1,25.3,N/A,,Clear,280,2011-10-17 15:56:00
11:56 AM,53.1,28.0,38,29.78,10.0,WNW,18.4,29.9,N/A,,Clear,290,2011-10-17 16:56:00
12:56 PM,54.0,27.0,35,29.77,10.0,West,16.1,27.6,N/A,,Clear,280,2011-10-17 17:56:00
1:56 PM,55.9,28.0,34,29.76,10.0,West,20.7,29.9,N/A,,Clear,280,2011-10-17 18:56:00
2:56 PM,57.9,26.1,30,29.76,10.0,West,17.3,26.5,N/A,,Clear,270,2011-10-17 19:56:00
3:56 PM,57.9,27.0,31,29.76,10.0,West,17.3,27.6,N/A,,Clear,270,2011-10-17 20:56:00
4:56 PM,55.9,26.1,32,29.76,10.0,West,16.1,25.3,N/A,,Clear,280,2011-10-17 21:56:00
5:56 PM,53.1,25.0,34,29.77,10.0,West,8.1,20.7,N/A,,Clear,280,2011-10-17 22:56:00
6:56 PM,50.0,25.0,38,29.79,10.0,West,10.4,-,N/A,,Clear,280,2011-10-17 23:56:00
7:56 PM,48.2,24.8,40,29.78,10.0,West,10.4,-,N/A,,Clear,270,2011-10-18 00:56:00
8:56 PM,46.0,25.0,44,29.81,10.0,West,6.9,-,N/A,,Clear,260,2011-10-18 01:56:00
9:56 PM,42.8,24.8,49,29.79,10.0,West,6.9,-,N/A,,Clear,260,2011-10-18 02:56:00
10:56 PM,44.6,24.8,46,29.80,10.0,West,6.9,-,N/A,,Clear,270,2011-10-18 03:56:00
11:56 PM,42.1,25.0,51,29.82,10.0,West,5.8,-,N/A,,Clear,280,2011-10-18 04:56:00